Zurück zum Katalog

FENGYUN 1C DEB

AktivSSO
NORAD 33723·DEBRIS·🇨🇳 China

Gestartet May 10, 1999 von Taiyuan Satellite Launch Center

Loading…

Nächste Überflüge (nächste 24 Stunden)

TLE

AlterndSource: Space-Track

Epoche: Sep 11, 2026, 01:50 UTC

1 33723U 99025DHL 26254.07657499  .00002225  00000-0  11190-2 0  9994
2 33723  99.1478 346.2333 0096780 283.0502 200.3669 14.15150766674731

Verfolge FENGYUN 1C DEB in Echtzeit mit AllMySat

Download on the App Store